Theta_e
317 325 328 325 325 317 321 320 316 315 310 308 308 308 307 305 310 316 304 304 304 304 305 308 309 309 310 309 310 310 310 310 310 309 309 309 310 309 309 309 310 311 311 312 312 312 312 311 311
317 321 321 314 320 321 320 317 316 314 308 307 307 306 305 305 304 303 304 304 304 304 307 308 309 308 309 309 309 309 309 309 309 308 307 307 308 308 307 307 308 309 309 310 310 311 309 309 309
318 320 316 314 314 320 320 316 311 309 308 309 306 305 306 305 304 303 304 304 305 305 307 308 309 309 308 308 308 308 308 307 307 307 306 305 306 306 305 306 307 307 308 308 308 308 307 307 307
320 315 311 317 321 318 317 313 310 308 307 305 304 304 304 304 304 304 304 304 303 303 305 307 308 308 309 307 307 307 306 306 306 306 305 304 304 304 303 304 304 305 306 306 306 306 306 305 305
317 309 315 317 319 317 315 312 308 309 308 306 305 304 304 303 304 304 304 303 302 303 305 306 306 307 307 306 305 306 305 304 304 304 304 302 302 302 301 301 302 303 304 304 305 305 304 303 303
313 310 316 318 318 317 313 310 309 309 307 305 304 304 304 304 305 305 303 303 304 304 304 303 303 305 305 305 304 305 304 302 303 303 303 301 300 300 300 300 301 302 303 303 303 302 302 301 301
314 311 315 316 317 316 313 308 310 308 307 306 304 304 303 303 305 304 304 304 305 305 304 303 302 300 300 300 303 304 302 301 302 302 302 299 299 299 298 298 299 299 299 300 299 299 299 299 298
309 310 316 316 316 317 311 308 306 307 306 305 304 304 304 303 305 305 305 305 305 305 304 303 302 302 299 298 302 301 301 301 301 301 300 297 295 297 296 296 297 297 296 297 296 296 296 297 296
310 312 315 316 314 314 306 307 306 304 305 304 304 304 304 305 305 305 305 304 305 305 304 303 302 301 298 298 298 299 297 298 298 298 296 295 294 294 294 294 295 294 294 293 294 295 295 295 293
311 311 315 313 312 309 307 306 305 304 304 304 304 303 304 305 305 304 304 304 305 305 304 303 302 299 298 298 298 298 297 298 297 297 295 294 294 294 293 292 293 291 292 291 292 292 292 291 290
311 313 313 310 307 306 305 304 303 303 305 304 304 303 303 304 304 304 304 304 305 305 304 302 301 299 298 298 298 297 297 297 297 295 294 294 294 293 292 291 290 288 289 288 289 289 290 290 289
312 309 312 308 306 306 305 303 304 304 304 303 302 302 302 301 302 303 303 304 305 304 303 301 299 299 298 298 297 297 297 295 295 294 294 294 293 292 290 289 288 287 288 288 289 289 289 289 289
309 309 306 304 303 302 304 303 303 304 302 302 302 302 300 299 300 302 303 304 304 304 302 300 299 298 298 298 297 296 295 294 294 294 294 293 291 290 289 288 287 287 288 288 288 288 289 289 289
307 304 304 304 303 303 303 303 303 303 301 301 301 300 299 299 300 300 302 303 303 303 302 300 299 298 298 297 297 296 295 294 293 294 293 291 290 289 288 288 287 287 287 288 288 288 288 288 288
305 306 305 305 304 303 302 304 302 302 300 300 300 299 299 299 301 301 304 303 304 303 301 299 298 298 297 297 296 295 294 293 293 293 291 290 289 289 288 287 287 287 288 288 288 288 288 288 288
306 305 307 305 303 303 303 304 301 299 300 299 299 298 299 299 301 302 304 304 304 303 301 299 298 298 297 297 296 295 294 293 292 292 291 289 288 288 287 286 287 287 288 287 288 288 288 288 288
306 306 305 306 302 303 302 304 300 297 300 299 298 297 298 299 299 301 303 304 303 302 300 299 298 298 297 296 295 294 293 292 292 291 290 288 288 287 286 286 287 287 287 287 287 288 288 289 289
308 307 306 305 303 302 302 302 300 298 299 299 297 296 297 298 298 301 303 303 303 301 299 299 298 297 297 296 295 293 292 292 292 290 289 288 287 286 286 286 287 287 287 287 287 288 288 289 290
308 308 308 305 304 303 301 301 300 298 297 297 296 296 296 298 299 302 303 303 301 300 299 299 298 297 297 296 294 292 292 292 291 290 288 287 287 286 286 286 286 286 286 287 287 287 289 289 289
311 312 310 307 304 304 302 302 299 297 300 299 297 296 296 297 297 300 302 301 300 300 299 298 297 297 296 295 293 292 292 291 291 289 288 287 287 285 285 286 286 286 286 286 286 288 289 289 289
310 311 309 309 304 305 306 305 302 300 299 298 297 297 296 298 299 299 301 301 300 299 298 297 297 296 295 294 293 291 291 291 290 289 287 287 286 285 286 285 285 285 286 286 286 287 288 288 288
311 312 311 307 306 307 306 308 306 301 300 300 300 297 297 298 300 300 301 300 300 298 298 297 296 295 294 293 292 291 291 290 289 288 288 286 285 285 285 285 285 285 286 285 286 286 287 287 287
313 311 311 309 308 309 309 308 308 301 300 300 300 298 298 299 300 300 301 301 299 298 297 296 295 294 293 293 291 291 291 290 289 288 288 286 284 284 285 285 285 285 285 285 285 286 286 287 287
313 314 313 314 309 308 310 308 308 303 303 301 301 299 299 298 299 301 301 300 297 297 296 296 295 294 293 292 291 291 290 290 289 288 288 287 286 284 284 285 285 285 285 285 285 286 286 286 286
313 313 312 309 307 309 312 310 310 310 306 304 303 301 300 299 301 300 298 296 296 296 296 295 295 293 293 292 291 290 290 290 289 288 288 287 286 284 284 285 285 285 285 285 285 286 285 285 285
316 318 318 308 316 318 317 317 316 309 307 307 304 300 300 301 301 299 297 295 296 296 296 295 294 293 293 291 290 290 290 289 289 289 288 287 286 285 283 285 285 285 285 285 285 285 285 284 284
314 319 315 317 314 312 316 315 311 309 306 303 302 301 301 300 300 299 297 296 296 296 296 295 294 293 292 291 290 290 290 289 288 288 288 288 286 285 282 285 285 285 285 285 285 285 284 283 283
315 316 320 312 311 313 313 318 316 309 307 305 303 302 300 301 300 298 297 296 296 296 295 295 294 293 291 290 290 290 289 289 288 288 287 286 285 285 281 285 285 285 285 285 285 284 283 283 283
317 316 312 308 305 311 309 313 314 312 307 305 302 301 301 301 300 298 297 296 296 296 295 294 293 292 291 290 289 289 289 289 288 287 286 285 285 283 281 284 285 285 285 285 284 284 283 283 283
316 316 314 322 320 304 305 312 307 313 309 304 302 302 301 301 300 298 297 296 295 295 294 294 293 292 290 290 289 289 288 288 287 287 286 285 284 281 282 284 284 284 284 284 283 283 283 283 283
Wind_Speed
4 11 8 3 4 5 1 0 1 4 3 3 2 4 7 4 2 3 10 15 12 13 14 14 11 12 15 15 15 16 17 17 19 21 21 21 21 22 21 21 22 21 21 20 20 20 20 21 22
5 12 2 2 4 3 4 3 5 4 7 10 8 5 6 2 4 8 10 12 12 13 16 13 10 10 13 14 14 14 16 16 18 20 22 22 21 22 22 21 22 21 20 20 19 19 20 20 21
9 6 3 4 3 4 5 4 5 5 11 5 5 5 5 7 8 11 15 15 13 13 12 10 10 10 11 13 12 13 15 15 16 18 21 23 22 21 23 22 22 22 20 20 19 19 19 20 21
4 4 4 4 4 4 6 8 5 8 2 6 6 7 4 3 5 13 18 14 9 10 9 10 10 10 10 12 11 12 14 14 15 16 18 21 22 22 24 23 24 23 21 20 19 18 18 20 21
4 3 4 3 2 2 0 5 7 4 3 3 1 4 3 4 21 22 16 11 13 13 11 11 10 10 10 12 12 12 13 15 14 14 16 19 21 21 23 24 23 21 21 21 20 18 20 23 23
4 3 4 2 3 1 3 6 6 3 3 4 6 5 2 20 24 19 15 14 13 12 11 13 13 10 10 12 12 11 12 16 13 13 14 18 21 20 24 23 22 21 19 18 18 19 22 24 25
5 4 2 3 5 2 4 5 5 5 5 1 8 4 3 11 18 16 15 14 12 10 9 12 15 15 12 12 11 11 13 16 14 12 14 17 19 19 23 23 22 21 21 21 21 22 22 23 24
5 5 4 3 4 3 6 4 4 6 3 6 5 6 6 16 20 17 15 12 11 9 8 10 14 17 16 14 12 12 14 14 13 12 13 17 23 20 24 24 23 24 24 22 22 22 22 21 21
3 4 2 5 7 4 6 5 3 4 7 2 3 4 8 26 21 18 16 12 11 9 6 7 12 16 15 13 13 13 18 16 12 12 16 21 23 24 28 26 24 25 25 23 22 22 21 21 20
5 4 4 1 5 6 5 5 7 5 3 6 5 10 20 25 22 20 16 13 13 10 6 6 11 15 14 15 14 15 16 15 13 13 18 21 22 24 26 27 23 25 22 22 19 20 20 21 25
1 3 2 5 5 8 8 5 3 11 1 5 13 9 13 16 17 16 15 15 15 12 7 7 10 13 13 13 13 14 14 14 10 15 17 18 20 23 25 28 30 31 25 27 24 25 24 24 24
5 4 3 5 5 7 6 6 5 1 5 9 8 12 10 9 15 18 17 18 17 14 11 8 9 11 12 12 14 15 15 14 12 14 15 18 21 23 27 29 30 27 27 26 24 25 26 27 27
5 3 5 5 9 7 7 4 6 3 8 9 11 9 9 9 13 16 21 21 18 16 12 8 9 11 12 12 13 14 15 14 14 14 15 18 21 25 28 29 28 26 26 25 25 25 26 28 28
3 6 5 3 5 4 9 4 4 4 7 9 9 9 8 12 16 18 22 22 18 16 12 8 9 11 12 12 14 14 14 13 15 13 14 19 24 27 27 28 26 27 26 26 26 27 25 26 28
3 5 4 2 3 4 9 0 5 10 9 10 9 8 7 10 21 24 27 22 20 16 12 8 9 9 12 12 13 13 15 14 15 12 15 22 26 25 27 26 25 27 28 28 27 22 22 24 24
5 4 2 4 6 5 1 5 5 8 13 11 10 7 6 7 17 21 28 23 20 16 12 9 7 9 11 12 12 14 14 13 12 12 19 24 25 24 28 26 26 28 29 27 21 24 25 24 24
3 4 5 3 9 6 5 3 7 7 10 10 9 8 7 6 7 23 26 23 20 17 15 11 8 9 10 11 12 15 13 13 10 14 21 25 25 27 26 26 27 28 26 21 23 23 23 23 23
7 5 5 6 7 5 5 5 8 9 9 12 10 9 7 8 8 25 24 22 20 17 13 10 8 8 8 10 13 16 13 13 9 18 22 24 25 30 25 27 28 28 20 21 23 25 26 24 23
5 3 5 3 4 4 8 4 11 11 6 9 9 8 8 9 8 23 23 22 19 16 13 10 9 8 8 10 14 16 13 12 9 19 22 24 27 30 26 28 28 24 21 23 23 23 24 22 25
4 2 5 2 3 5 3 10 7 10 17 16 11 9 9 7 8 15 22 22 19 16 13 12 10 9 10 12 14 12 10 10 9 19 24 25 28 27 27 28 28 22 22 24 25 25 23 17 23
12 4 3 4 3 3 2 6 5 8 7 6 7 7 7 13 15 11 18 20 17 15 14 13 11 10 10 11 14 13 10 9 14 23 28 30 28 24 25 27 26 22 25 22 24 24 24 22 21
10 5 6 7 5 3 5 5 5 5 13 12 13 9 9 10 11 15 17 19 16 14 16 14 12 10 11 11 17 14 11 8 11 18 25 31 27 27 26 26 26 24 25 23 22 22 25 24 20
7 8 5 4 4 3 1 2 6 3 5 11 14 9 10 13 15 13 17 20 16 19 17 14 12 12 11 14 15 12 10 8 12 18 26 31 33 31 29 27 24 26 25 25 23 25 24 23 21
8 7 7 5 3 2 5 5 5 4 6 6 6 9 11 12 12 15 21 21 20 20 18 15 13 13 12 13 12 11 9 10 14 20 25 29 32 34 31 28 26 26 26 27 24 24 25 24 24
7 6 3 4 3 6 2 3 8 6 7 8 18 12 13 14 15 13 16 20 24 21 18 15 13 12 11 12 12 10 9 10 12 16 20 26 30 32 30 28 28 27 27 28 25 26 25 24 24
2 3 4 6 2 4 3 5 5 4 7 7 9 12 15 15 14 14 17 21 24 21 16 15 13 12 11 12 12 9 10 14 13 14 17 22 24 27 29 26 27 27 28 29 29 26 25 26 26
2 4 5 3 2 2 2 5 7 5 8 9 14 16 15 15 14 14 18 23 24 21 17 16 13 12 10 11 9 9 11 14 17 17 17 19 23 26 29 25 26 27 29 30 29 27 28 28 28
5 2 2 3 1 3 4 4 5 1 2 7 12 15 14 14 13 12 17 23 22 20 18 15 13 13 10 10 9 10 12 13 17 18 19 20 21 24 28 24 25 27 29 30 28 27 30 31 29
2 2 5 4 4 2 2 5 3 4 5 7 8 11 16 15 13 11 16 22 23 20 18 16 14 12 10 10 10 11 12 13 17 18 20 23 21 26 24 23 26 29 31 30 29 29 30 31 30
2 4 4 4 3 2 3 6 4 6 2 8 9 10 11 12 12 14 19 24 23 21 18 17 14 10 9 9 10 10 12 14 16 16 20 23 24 28 24 23 27 30 30 30 30 30 32 31 32
Wind_Direction
87 140 136 90 53 64 333 241 244 160 106 332 76 126 121 44 49 163 132 133 100 66 56 59 43 39 33 30 29 29 27 28 27 27 27 26 24 20 19 17 15 13 11 9 6 4 2 359 357
163 156 132 80 82 66 263 227 206 183 155 149 108 110 48 73 86 120 128 123 89 68 61 51 41 38 33 28 29 29 27 27 28 29 27 25 23 20 17 14 12 10 8 6 4 2 359 357 355
157 173 87 91 107 179 199 201 180 123 154 173 110 55 107 121 111 145 141 127 103 83 71 51 42 40 30 27 29 30 27 26 25 27 26 25 22 19 14 13 8 6 4 2 0 358 358 357 355
152 26 34 91 198 231 194 177 149 136 97 53 95 67 56 41 116 140 138 129 107 84 76 55 51 37 36 28 29 29 26 23 20 24 24 23 20 18 12 10 5 4 0 356 354 353 356 354 350
71 57 55 67 276 311 20 142 138 120 93 89 90 122 55 31 134 138 140 129 107 99 88 65 59 47 44 33 27 26 25 19 17 20 21 19 18 17 13 7 6 2 357 352 349 350 346 344 341
49 98 71 251 238 112 62 147 138 106 96 141 86 95 115 144 142 151 137 123 114 107 92 66 55 49 45 32 25 27 24 15 16 16 18 16 16 15 10 7 4 0 358 357 349 342 335 334 333
117 88 203 156 174 160 178 142 118 121 114 133 142 84 135 194 159 146 136 129 127 119 96 67 50 42 33 23 32 30 21 12 12 15 19 16 16 12 8 5 3 1 352 344 338 332 329 328 327
105 91 108 193 193 237 148 96 75 66 56 127 133 148 182 208 166 149 143 140 139 129 98 68 49 36 34 41 36 28 18 14 17 21 21 14 8 10 8 4 359 350 348 341 338 334 332 330 328
106 65 169 209 153 173 144 117 40 35 97 46 325 141 173 174 162 151 149 148 154 144 112 77 48 36 37 42 32 36 20 14 12 13 11 6 6 7 360 358 354 350 347 343 340 338 336 333 330
69 99 212 190 175 155 123 99 129 88 57 24 67 60 137 159 165 160 160 162 167 158 135 84 47 38 44 41 33 33 18 20 16 14 7 6 6 2 354 352 351 348 346 342 339 336 334 334 335
74 146 144 354 124 115 122 98 103 125 131 196 157 143 146 161 168 166 171 173 175 162 148 99 51 45 44 36 37 33 26 25 37 11 10 9 4 355 353 353 351 352 353 352 348 345 343 337 333
90 23 129 167 127 99 115 109 98 232 192 144 156 150 148 160 173 178 175 170 161 167 152 103 61 57 50 44 46 35 33 37 28 18 14 6 1 358 355 354 354 355 355 351 348 343 340 337 332
85 136 48 87 83 86 100 93 140 107 129 136 144 155 148 152 171 185 172 160 157 157 145 101 67 59 42 49 42 35 42 37 21 17 9 4 2 358 355 355 358 356 353 352 347 343 339 336 335
102 83 112 63 99 112 116 143 86 248 143 143 153 170 160 134 146 142 155 155 161 157 141 111 79 56 34 46 37 41 37 26 17 20 12 6 2 358 356 357 358 356 354 350 348 343 334 329 330
95 81 73 178 145 116 117 326 207 165 158 158 172 175 166 164 159 156 161 159 164 156 138 119 93 60 46 43 38 39 32 19 21 21 10 6 4 357 358 359 357 357 352 351 350 342 337 330 325
68 54 131 230 152 176 70 254 212 171 157 176 182 178 167 174 169 164 163 161 163 155 150 139 102 63 57 42 41 35 29 25 28 17 10 6 3 360 0 3 2 356 354 352 345 341 335 329 327
344 218 213 283 203 145 185 247 198 176 172 180 190 186 169 163 161 167 165 162 161 159 154 135 98 70 61 44 42 31 31 27 29 16 9 6 3 3 3 5 2 357 353 348 342 337 334 328 323
200 218 229 213 215 171 178 240 171 188 184 188 192 197 179 176 196 168 165 163 160 157 147 122 99 83 63 44 36 32 40 30 27 16 7 4 5 6 9 6 2 357 349 345 341 336 332 326 322
149 194 221 246 201 136 211 201 190 197 209 205 200 200 190 186 177 166 165 165 158 153 142 120 109 95 56 44 36 36 40 30 24 12 6 5 9 8 12 5 -0 355 347 340 341 339 331 331 334
336 248 252 294 173 167 164 250 201 193 211 203 190 200 187 157 154 163 168 164 158 153 143 124 108 88 66 46 46 46 41 29 22 11 11 11 8 11 9 5 359 351 346 341 346 342 335 333 340
252 228 218 236 95 328 81 288 208 227 228 181 212 202 163 177 168 164 171 165 155 149 139 125 109 93 70 51 37 47 41 30 17 15 15 14 10 15 9 6 360 353 347 341 343 342 341 333 336
251 191 214 153 114 211 141 274 288 230 217 197 204 192 180 171 160 161 161 158 153 144 137 124 113 97 70 49 39 48 37 30 23 17 18 19 20 14 10 5 4 356 358 346 341 342 342 334 334
236 109 98 92 70 36 285 18 263 87 220 207 204 190 188 170 160 157 150 156 148 144 135 128 116 92 70 46 44 48 41 33 21 19 19 22 23 20 12 7 7 3 1 356 344 349 342 346 334
158 77 56 55 47 350 231 151 281 216 210 195 192 192 162 150 137 130 148 147 140 136 132 130 116 91 65 46 56 45 34 25 20 20 18 18 18 16 12 10 8 4 2 0 350 345 348 345 341
63 72 11 351 354 231 177 151 246 258 238 191 196 176 154 143 136 134 137 138 141 140 138 129 109 96 73 55 56 43 31 25 21 17 15 15 14 13 8 12 7 6 4 3 352 349 347 349 346
62 93 121 224 221 272 112 230 253 277 315 252 166 132 134 136 136 140 145 141 145 146 142 128 115 101 72 56 55 42 34 30 21 10 11 15 11 11 8 12 12 8 6 5 356 351 354 353 350
344 174 156 123 6 32 258 294 323 27 26 87 120 129 134 133 138 142 138 143 150 148 143 132 121 98 71 63 55 42 36 31 26 23 14 9 6 7 8 13 14 12 9 5 356 355 356 356 353
165 327 131 356 286 291 287 257 244 277 119 120 134 135 127 129 135 135 135 146 149 145 139 130 117 93 75 68 54 43 37 34 29 26 23 14 6 9 10 14 15 15 11 4 360 0 360 360 355
321 359 57 128 108 202 284 274 231 281 199 156 138 143 140 143 144 139 139 148 148 143 139 136 113 94 79 72 58 49 42 38 34 32 26 20 18 11 17 20 18 15 11 8 1 1 1 1 357
230 158 126 101 275 234 177 282 328 299 220 137 138 134 132 138 139 137 143 147 146 144 144 137 110 99 88 79 61 53 44 43 38 34 27 23 22 18 22 25 25 22 12 10 5 3 3 3 359